SL-16 DEB, 20629

Orbit data source: Space-Track

SL-16 DEB, 20629 is space debris in LEO originally from a launch on Tue, 22 May 1990 UTC launched from the Tyuratam Missile And Space Complex (TTMTR). Debris objects in space refer to the collection of defunct objects orbiting the Earth. Examples of debris include non-operational satellites, rocket bodies, and fragments generated from explosions, collisions, or faulty payload assembly.

Loading next visibility...
Identifier
20629, 1990-046F
Orbit
LEO
Country
Flag of CISCIS
Related business
Manufacturer
Yuzhnoe
Mission
Spacecraft
Bus & Motor
SEP MOTOR COVER, Unknown motor
Mass
~0 kg wet, ~1 kg dry
Launch date (UTC)
1990-05-22 (36 years ago)
Launch vehicle
Unknown
Launch site
Tyuratam Missile And Space Complex (TTMTR)
Object type
Payload
Rocket body
Debris
Shape & HBR
Unknown shape, 0.1 m
Radar Cross Section
Small (<0.1 m²)

Expand to show TLE details & history
Last TLE update: 8 hours ago

TLE from 8 hours ago
0 SL-16 DEB
1 20629U 90046F   26093.95676882  .00000139  00000-0  16722-3 0  9993
2 20629  71.0221 307.4558 0198454 170.7273 296.1344 13.74148169797583
Epoch: 2026-04-03T22:57Z
TLE epoch observation values (Epoch: 2026-04-03T22:57:44.826Z)
Latitude
66.20425°
Longitude
-100.14125°
Altitude
933.617 km
Speed
7.422 km/s
True Right ascension
05h 06m 18s
True Declination
66° 04' 48"
Sunlit
Object was in daylight at epoch
Visualization orbit readout
Latitude
Unknown
Longitude
Unknown
Altitude
Unknown
Speed
Unknown
Apparent Right ascension
Unknown
Apparent Declination
Unknown
Sunlit
N/A
Visualization observer readout
Local Sidereal Time
13:16:13
Azimuth
Unknown
Elevation
Unknown
Doppler factor
Unknown
Orbital elements
Apogee altitude
1,128.756 km
Perigee altitude
836.6 km
Semi-major axis
7,360.815 km
Eccentricity
0.01985
Inclination
71.0221°
RAAN
307.4558°
Arg. of periapsis
170.7273°
True anomaly
294.07068°
Mean anomaly
296.1344°
Eccentric anomaly
295.10476°
Mean motion
3.4368 °/min
Orbital period
104.75 mins
BSTAR
0.00016722
Loading maneuver chart data...
Computing Atmospheric mass density...
Loading historical data...
Loading historical data...
Loading historical data...
Loading historical data...
Loading historical data...
Loading historical data...
Loading historical data...
Other satellites on launch #46 in the year 1990 (1990-05-22 UTC)

Documentation

Showing up to 5 results
|